Location: Newark
(12.4436°N, 0.6167°W)
Time: 05:13:40
(UTC+00:00)

deb Explorer IX - Pass Details

Date: 10 December 2019
Orbit: 548 x 1101 km, 38.8° (Epoch: 24 January)

Event Time Altitude Azimuth Distance (km) Brightness Sun altitude
Rises 12:39:22 0° 206° (SSW) 2,790 ? 53.0°
Reaches altitude 10° 12:41:50 10° 192° (SSW) 1,948 ? 52.8°
Maximum altitude 12:45:35 26° 135° (SE) 1,282 ? 52.5°
Drops below altitude 10° 12:49:46 10° 79° (E) 2,195 ? 52.2°
Sets 12:52:43 0° 67° (ENE) 3,225 ? 51.9°
